Theta_e
317 318 319 319 319 318 319 320 319 319 318 318 317 317 317 317 316 316 317 317 317 317 318 320 323 323 327 351 355 354 354 352 349 351 350 350 350 350 347 346 348 347 345 344
319 319 319 318 319 319 319 319 319 318 318 319 318 319 317 317 317 316 317 317 319 318 318 320 323 324 327 344 353 354 353 353 351 351 350 351 348 348 345 346 347 347 345 343
317 318 318 318 318 320 320 320 320 319 319 319 318 319 320 317 318 317 316 317 318 319 320 321 324 324 324 344 349 355 354 352 351 351 349 351 347 345 346 346 348 345 344 343
318 318 318 318 318 318 318 318 319 320 319 320 320 322 320 319 319 320 318 316 317 318 320 322 324 325 324 346 350 352 353 354 352 350 352 348 346 346 347 346 345 344 344 343
318 317 317 318 318 318 319 318 319 321 321 321 322 320 320 319 320 320 320 317 317 317 319 321 324 325 330 348 352 351 353 353 353 351 348 349 347 346 348 346 344 344 344 345
318 317 318 318 318 318 318 318 319 320 321 325 320 320 321 320 321 319 321 319 317 317 318 320 322 324 343 351 351 351 354 352 352 348 350 346 347 345 346 344 343 343 341 342
321 319 318 319 320 320 320 321 326 326 326 324 318 319 321 320 320 321 320 318 318 317 317 319 321 325 338 349 348 352 353 350 350 350 347 347 347 345 345 344 339 340 342 340
322 322 319 319 318 321 321 322 322 323 325 322 318 324 321 321 321 320 319 318 319 318 317 318 321 324 352 352 351 350 351 349 334 349 348 346 347 343 342 337 343 341 340 338
322 319 317 315 315 315 318 322 319 320 320 324 319 318 321 319 320 320 319 318 319 319 317 318 320 323 348 353 350 350 351 348 348 349 347 348 344 337 340 342 339 337 335 333
316 317 315 314 315 315 317 317 323 320 321 320 319 320 318 319 320 319 320 320 318 319 318 318 320 323 348 352 350 351 352 346 351 347 345 342 338 341 341 339 337 336 333 331
315 313 316 314 315 316 318 320 320 319 320 322 320 317 318 319 319 318 319 320 318 318 318 318 320 328 350 346 350 351 350 351 350 346 342 343 343 343 338 337 335 333 331 329
313 313 317 315 315 316 316 320 319 322 317 319 320 321 318 318 317 317 319 319 319 317 318 319 324 343 347 350 351 349 350 350 346 342 343 344 341 340 337 335 331 330 328 328
311 314 318 317 319 320 319 318 319 320 320 324 323 321 318 317 317 317 318 318 320 318 319 325 341 345 345 345 346 346 349 346 343 347 346 341 340 335 334 333 331 329 328 324
311 312 315 318 317 318 319 320 319 319 320 322 322 320 318 318 317 317 317 318 320 320 336 343 335 334 331 330 328 340 346 345 343 344 340 337 334 332 331 328 329 327 325 323
312 315 315 315 316 318 319 320 319 320 320 324 321 318 318 317 319 319 317 318 320 333 334 336 333 330 327 327 326 339 341 342 341 339 337 334 331 330 327 327 326 325 323 319
312 316 314 316 317 320 323 317 314 315 315 315 318 321 318 316 317 319 318 319 322 331 333 336 332 333 331 327 333 338 337 336 338 334 332 330 329 328 326 325 323 320 318 316
313 315 316 318 318 321 321 311 311 311 310 311 315 315 312 314 317 319 320 322 326 334 333 335 333 330 327 327 336 334 334 333 332 329 327 327 327 326 324 322 319 316 314 312
313 315 317 319 321 324 313 308 308 308 308 311 310 308 308 310 314 318 320 325 330 333 331 331 334 332 333 333 333 332 331 329 326 325 325 324 323 321 319 318 315 313 312 312
313 315 319 321 322 319 310 308 307 307 307 306 305 305 310 319 320 323 330 329 330 329 329 330 328 334 330 330 329 327 326 324 323 322 320 319 319 319 316 313 312 312 312 312
314 316 317 319 322 324 307 306 306 307 309 306 303 305 317 322 329 327 329 328 327 327 326 326 327 331 333 328 325 324 323 321 319 318 318 317 317 315 312 312 312 311 311 310
315 313 316 316 319 314 305 305 305 312 310 300 303 306 320 324 325 328 328 327 327 325 324 325 329 331 324 323 323 321 320 319 318 317 316 316 314 313 312 311 312 311 310 309
316 314 314 313 317 315 303 304 304 301 299 303 305 311 320 323 325 326 327 328 328 327 326 325 324 323 322 321 320 319 318 318 317 316 315 314 313 313 312 312 311 310 309 308
315 312 311 309 311 304 301 300 300 300 302 303 306 311 319 322 322 323 324 325 326 326 326 324 323 322 321 320 319 317 316 316 317 314 312 312 311 310 310 310 310 310 311 309
310 308 309 309 305 303 301 301 300 301 303 304 308 310 316 319 320 320 320 321 321 321 321 321 320 320 320 318 317 317 317 317 313 311 311 310 310 309 308 308 309 309 309 309
309 307 306 307 306 301 303 300 299 300 303 305 308 309 313 314 315 317 317 318 318 318 318 318 318 318 318 317 316 316 314 312 311 311 309 309 308 308 308 308 307 308 308 307
306 305 306 306 301 299 299 299 300 302 302 303 306 309 311 311 312 313 313 314 314 315 315 315 315 315 315 315 314 313 312 311 310 308 308 307 307 306 305 306 305 305 305 304
Wind_Speed
20 15 15 21 18 21 21 23 25 24 24 20 18 19 20 25 23 23 29 36 41 46 42 39 34 36 28 26 37 40 51 40 40 35 32 27 27 23 21 19 19 15 14 16
16 20 22 23 22 22 23 25 26 26 23 23 21 28 22 17 21 26 30 32 29 39 46 42 37 33 31 27 32 37 34 33 36 35 34 28 25 25 22 20 19 18 16 17
21 24 23 22 21 20 22 24 24 25 24 27 24 27 25 22 25 33 30 35 34 33 37 32 32 40 37 33 35 36 33 35 37 37 35 30 23 25 25 24 22 17 20 19
21 21 23 23 25 21 25 22 21 24 22 18 18 19 21 23 20 21 33 32 36 35 32 35 29 31 42 39 37 34 35 40 43 39 36 33 32 32 26 26 20 20 20 20
24 25 26 27 27 24 26 23 16 17 20 17 25 14 23 17 24 25 20 31 36 39 29 26 31 32 35 44 44 37 43 43 45 44 41 36 32 30 28 27 25 25 23 19
26 33 24 24 27 26 25 24 21 15 13 15 20 16 23 21 25 21 26 31 41 41 36 34 35 35 38 48 43 39 44 49 45 41 36 40 40 38 36 29 28 21 20 17
21 22 25 11 21 25 14 14 4 9 9 16 13 17 20 23 23 30 20 30 43 45 44 44 41 33 41 42 41 47 46 47 44 37 42 44 39 37 35 31 26 26 20 17
11 11 10 9 10 5 7 8 6 6 4 8 18 7 13 22 25 29 26 36 34 47 48 46 40 39 43 47 48 46 49 47 41 41 48 42 38 34 34 28 26 19 20 19
7 7 26 29 18 15 4 7 2 6 11 14 18 23 14 22 18 19 20 11 32 36 47 46 42 46 47 50 50 49 50 50 55 46 47 39 38 34 29 25 27 26 18 20
4 14 16 21 19 18 14 9 5 4 6 16 13 17 12 12 9 13 18 15 27 19 42 44 46 45 47 49 51 51 51 53 49 51 47 41 35 30 31 33 28 20 21 22
10 7 13 17 9 16 4 5 8 8 8 7 13 10 6 8 8 2 19 27 23 25 23 45 42 37 49 49 55 56 57 51 50 45 43 38 34 36 34 29 26 28 25 20
5 4 8 20 27 22 18 15 15 6 9 12 13 13 12 7 8 5 16 25 18 27 33 37 34 43 46 52 59 57 58 54 51 46 43 40 37 35 31 32 29 29 23 20
5 4 7 12 0 6 6 11 16 10 8 18 13 11 7 4 9 12 14 21 27 29 34 29 33 45 47 47 43 50 63 56 55 52 48 42 44 37 36 33 29 27 22 19
8 4 9 14 22 20 20 14 16 18 10 18 18 21 20 18 12 16 16 23 29 27 26 33 36 41 28 16 16 26 52 59 57 54 46 45 41 39 36 32 29 26 21 18
3 7 15 22 24 25 26 25 23 21 21 18 18 21 15 14 11 15 18 26 22 19 26 34 46 52 42 27 28 38 49 54 54 52 48 47 45 39 36 32 28 24 20 17
3 5 16 24 25 17 19 4 10 10 16 14 17 21 11 14 17 25 27 17 20 21 31 34 40 42 43 13 58 48 51 51 52 49 49 46 43 39 36 31 27 24 22 18
2 4 5 9 19 24 2 7 11 11 15 9 10 17 16 18 20 22 20 18 13 33 38 37 45 47 54 57 46 47 51 51 52 52 48 45 40 37 32 29 26 23 20 17
2 9 4 9 17 9 5 9 10 10 18 8 11 18 21 24 32 28 23 13 29 34 43 50 49 46 52 53 53 49 49 48 48 48 46 40 37 36 32 29 25 22 19 16
9 8 4 5 11 4 7 14 12 6 18 3 13 20 20 16 11 15 14 32 37 39 45 50 51 50 51 47 52 50 48 45 47 45 44 41 38 34 30 28 25 23 20 18
16 9 6 9 8 5 7 24 32 7 5 16 28 26 20 5 9 6 35 40 41 48 55 58 62 63 54 47 46 50 47 46 45 45 44 38 34 31 30 28 25 22 18 16
10 9 8 9 6 3 17 22 36 6 9 31 31 30 11 5 10 39 45 43 44 52 54 58 60 59 54 46 52 49 48 47 46 45 41 35 32 32 30 30 27 25 20 14
5 7 6 7 5 5 25 12 7 12 26 25 32 27 15 20 38 43 45 46 51 50 53 56 58 52 44 47 52 50 47 45 47 44 38 37 35 33 32 28 23 19 20 18
4 3 5 3 5 9 17 14 20 24 25 21 23 27 16 28 36 43 41 43 46 55 49 52 50 48 43 44 51 55 48 49 44 38 38 34 31 30 28 26 23 21 15 19
6 3 4 7 3 16 15 24 31 27 15 18 20 23 23 28 33 41 42 41 45 50 45 46 47 48 46 48 48 48 41 36 38 40 37 35 33 30 24 23 23 24 22 16
2 11 9 8 5 21 4 28 29 26 14 14 18 27 30 33 33 40 38 38 41 44 43 45 44 45 46 42 39 34 34 38 40 39 37 33 31 29 25 25 23 23 21 20
2 3 4 4 17 5 18 25 18 11 13 16 23 31 37 36 35 40 39 39 41 44 44 43 40 41 43 43 43 38 37 38 39 38 31 28 28 24 19 23 24 20 16 10
Wind_Direction
262 235 240 256 265 277 274 272 277 281 288 278 260 256 267 276 243 258 244 236 237 229 239 237 237 224 232 206 185 187 169 175 174 173 171 178 178 171 175 180 193 201 187 198
261 251 256 261 249 261 276 279 276 278 280 278 272 281 257 255 283 249 271 247 254 219 227 230 224 216 219 206 200 190 179 183 176 176 171 179 175 171 173 186 195 204 186 201
278 282 291 283 268 255 253 259 271 277 282 279 278 264 263 253 257 258 243 264 262 231 218 223 215 205 215 203 211 192 188 191 183 182 168 176 174 168 173 186 192 195 190 202
282 293 284 273 271 272 276 267 273 295 269 265 266 273 264 271 263 244 248 242 254 265 211 219 217 210 202 196 204 200 192 195 186 183 174 174 171 171 176 189 189 183 190 188
280 284 280 275 274 280 277 290 274 283 272 277 257 265 271 247 250 252 255 226 243 251 247 225 221 217 196 191 199 198 194 193 187 180 173 173 168 169 178 186 186 188 192 189
285 276 268 265 260 256 267 264 264 256 269 260 255 248 263 256 256 249 242 220 223 233 239 235 233 213 192 192 194 195 193 192 184 176 178 171 176 177 178 183 184 177 177 165
296 297 286 300 297 252 337 283 267 231 216 248 270 249 246 260 251 249 228 239 214 215 222 226 235 221 197 187 195 193 191 184 181 177 177 180 180 182 186 189 179 172 179 189
280 303 1 1 21 348 304 268 226 283 248 293 287 259 282 265 245 261 252 228 218 203 208 219 224 223 181 184 191 192 186 179 175 186 185 182 182 179 181 181 166 174 176 161
313 273 327 306 300 277 248 236 300 285 276 272 261 266 238 271 270 250 252 242 257 202 200 211 215 221 185 179 190 187 180 173 175 182 180 178 175 171 163 154 162 173 163 159
286 289 285 291 292 270 246 255 216 196 258 264 256 273 257 231 210 343 321 215 251 253 197 203 213 218 180 183 186 184 183 176 174 180 177 164 162 161 156 164 166 162 150 154
302 225 281 302 247 263 228 218 211 252 244 269 286 287 23 349 32 310 299 310 223 243 260 198 211 206 181 185 187 180 173 169 172 169 157 158 157 158 163 156 158 154 151 156
262 277 277 286 281 271 272 232 231 227 247 240 256 271 279 300 301 301 288 290 278 228 239 203 206 183 184 178 179 178 170 159 161 153 159 159 155 153 150 150 153 148 143 142
195 236 299 297 297 45 273 240 230 243 258 257 261 261 303 231 288 269 267 282 277 230 237 201 168 170 169 177 181 182 148 152 154 156 160 152 145 149 146 142 146 144 144 133
163 235 231 266 282 303 291 264 262 243 252 263 248 268 265 267 273 267 245 262 267 277 171 141 139 136 121 148 202 175 144 155 152 153 152 145 146 143 141 143 137 140 144 141
236 262 274 274 270 271 273 279 273 257 246 254 272 255 256 281 324 293 254 256 282 147 135 128 137 137 114 119 173 131 141 150 149 149 147 139 140 142 141 137 138 141 141 138
223 273 296 290 285 272 265 25 1 348 318 306 301 285 326 343 307 287 262 272 271 172 141 129 143 160 164 138 146 154 143 141 147 143 137 140 140 142 143 143 141 141 135 131
240 291 297 281 310 308 89 50 5 310 294 288 272 294 320 290 262 254 250 244 228 158 133 123 121 132 149 165 153 138 137 140 136 131 133 137 143 141 138 141 142 138 134 132
239 287 265 288 303 307 76 9 343 297 290 307 273 288 281 267 265 253 246 235 155 154 132 135 131 132 139 141 139 139 137 136 131 129 131 132 135 133 137 139 135 129 124 120
209 274 275 278 311 276 29 337 326 324 297 261 306 295 294 249 218 273 198 160 151 132 128 136 144 156 139 135 133 135 131 130 126 124 125 127 132 135 134 130 127 124 123 119
341 307 262 299 301 303 352 335 327 314 259 335 333 328 317 344 115 124 127 130 124 126 130 128 131 144 145 138 136 129 128 126 124 125 126 126 129 130 127 126 121 118 116 118
334 346 325 324 298 91 5 347 325 19 318 316 317 314 46 115 100 103 112 110 113 119 123 127 134 140 145 137 132 127 125 122 121 122 123 126 126 124 121 117 119 128 129 119
326 335 345 328 306 334 7 348 17 295 304 318 318 332 51 95 94 98 106 113 113 114 118 121 123 128 133 130 124 119 115 122 122 123 127 127 125 127 130 129 128 116 104 97
348 25 312 294 316 351 350 324 327 332 315 327 332 356 64 92 96 98 99 102 104 107 109 115 120 125 126 122 124 121 122 129 132 130 122 121 122 120 113 113 114 114 108 103
329 39 285 326 62 345 318 341 345 346 342 347 23 36 64 87 94 100 95 98 101 108 113 118 118 117 112 121 122 124 131 133 130 122 120 115 113 115 116 132 131 126 117 114
337 315 325 276 344 328 339 341 346 351 5 38 55 63 73 83 88 97 101 101 104 109 111 112 112 111 109 113 116 125 132 132 123 122 124 130 132 135 139 132 128 127 118 134
1 330 320 310 327 303 299 338 357 18 38 61 76 78 84 85 86 94 95 99 102 104 106 108 112 112 111 112 114 119 128 131 130 123 130 135 135 136 120 129 129 121 121 130